Location: Croydon
(51.3762°N, 0.0982°W)
Time: 16:09:32
(UTC+01:00)

VELOX 1 - Pass Details

Date: 28 April 2019
Orbit: 629 x 644 km, 98.2° (Epoch: 19 May)

Event Time Altitude Azimuth Distance (km) Brightness Sun altitude
Exits shadow 03:05:06 22° 272° (W) 1,399 ? -19.0°
Drops below altitude 10° 03:08:19 10° 319° (NW) 2,021 ? -18.7°
Sets 03:10:58 0° 335° (NNW) 2,935 ? -18.5°
